Flag for France Weather past 2 weeks in Strasbourg, France

Now
68 °F

Passing clouds.


Feels Like: 68 °F
Forecast: 53 / 73 °F
Wind: 13 mph from Northeast

Location: Strasbourg Airport

Current Time: May 23, 2015 at 5:31:24 PM

Latest Report: May 23, 2015 at 5:00 PM


Visibility: N/A

Pressure: 30.04 "Hg

Humidity: 38%

Dew point: 41 °F

Location of StrasbourgLocation

Historic Weather in Strasbourg — Graph

°F

Strasbourg temperature yesterday

Maximum temperature yesterday: 70 °F (at 4:30 PM)
Minimum temperature yesterday: 41 °F (at 5:30 AM)
Average temperature yesterday: 57 °F

Past Weeks' High & Low Weather Summary

 TemperatureHumidityPressure
High88 °F (May 12, 2:00 PM)100% (May 14, 2:30 AM)30.36 "Hg (May 14, 2:30 AM)
Low41 °F (May 22, 5:30 AM)26% (May 22, 7:30 PM)29.74 "Hg (May 18, 5:30 PM)
Average61 °F65%30.09 "Hg
* Reported May 8 4:00 PM — May 23 4:30 PM, Strasbourg, Weather by CustomWeather, © 2015

Note: Actual official high and low records may vary slightly from our data, if they occured in-between our weather recording intervals... More about our weather records

Advertising

Strasbourg weather history for previous 24 hours

 ConditionsComfort  
Time TempWeatherWind HumidityBarometerVisibility
4:30 PM
Sat, May 23
70 °FPassing clouds.14 mph33%30.07 "HgN/A
4:00 PM70 °FSunny.15 mph35%30.07 "Hg10 mi
3:30 PM70 °FPassing clouds.14 mph35%30.07 "HgN/A
3:00 PM70 °FPassing clouds.17 mph33%30.07 "HgN/A
2:30 PM72 °FPassing clouds.16 mph33%30.07 "HgN/A
2:00 PM70 °FPassing clouds.17 mph33%30.07 "HgN/A
1:30 PM72 °FPassing clouds.15 mph33%30.07 "HgN/A
1:00 PM70 °FBroken clouds.16 mph31%30.07 "HgN/A
12:30 PM70 °FScattered clouds.16 mph33%30.09 "HgN/A
12:00 PM68 °FPassing clouds.14 mph35%30.09 "HgN/A
11:30 AM68 °FPassing clouds.10 mph38%30.09 "HgN/A
11:00 AM66 °FPassing clouds.12 mph43%30.09 "HgN/A
10:30 AM66 °FPassing clouds.9 mph43%30.12 "HgN/A
10:00 AM63 °FPassing clouds.9 mph56%30.12 "HgN/A
9:30 AM61 °FPassing clouds.9 mph55%30.12 "HgN/A
9:00 AM63 °FPassing clouds.8 mph52%30.12 "HgN/A
8:30 AM59 °FSunny.7 mph59%30.12 "Hg10 mi
8:00 AM57 °FSunny.6 mph63%30.12 "Hg10 mi
7:30 AM54 °FSunny.3 mph72%30.12 "Hg10 mi
7:00 AM52 °FSunny.2 mph72%30.12 "Hg10 mi
6:30 AM48 °FClear.2 mph82%30.12 "Hg10 mi
6:00 AM46 °FClear.1 mph82%30.12 "Hg10 mi
5:30 AM48 °FClear.2 mph76%30.12 "Hg10 mi
5:00 AM50 °FClear.2 mph71%30.09 "Hg10 mi
4:30 AM50 °FClear.3 mph71%30.09 "Hg10 mi
4:00 AM48 °FClear.2 mph82%30.12 "Hg10 mi
3:30 AM50 °FClear.2 mph76%30.12 "Hg10 mi
3:00 AM50 °FClear.2 mph71%30.12 "Hg10 mi
2:30 AM50 °FClear.2 mph71%30.12 "Hg10 mi
2:00 AM52 °FClear.2 mph67%30.15 "Hg10 mi
1:30 AM54 °FClear.5 mph67%30.15 "Hg10 mi
1:00 AM54 °FClear.5 mph67%30.15 "Hg10 mi
12:30 AM55 °FClear.3 mph63%30.15 "Hg10 mi
12:00 AM54 °FClear.6 mph67%30.15 "Hg10 mi
11:30 PM
Fri, May 22
55 °FClear.5 mph59%30.15 "Hg10 mi
11:00 PM54 °FClear.3 mph67%30.18 "Hg10 mi
10:30 PM57 °FClear.2 mph59%30.18 "Hg10 mi
10:00 PM59 °FSunny.3 mph48%30.18 "Hg10 mi
9:30 PM63 °FSunny.6 mph39%30.15 "Hg10 mi
9:00 PM64 °FSunny.8 mph34%30.15 "Hg10 mi
8:30 PM66 °FSunny.9 mph32%30.15 "Hg10 mi
8:00 PM66 °FSunny.10 mph30%30.15 "Hg10 mi
7:30 PM68 °FPassing clouds.13 mph26%30.15 "HgN/A
7:00 PM68 °FSunny.14 mph28%30.15 "Hg10 mi
6:30 PM70 °FPassing clouds.12 mph27%30.15 "HgN/A
6:00 PM68 °FSunny.14 mph30%30.18 "Hg10 mi
5:30 PM68 °FPassing clouds.13 mph30%30.18 "HgN/A
5:00 PM68 °FPassing clouds.13 mph30%30.18 "HgN/A
Weather by CustomWeather, © 2015

See weather overviewHow to use our weather pages